Probability
0 0 0 0 0 0 0 0 0 0 0 0 0 0 0 0 0 0 0 0 0 0 0 0 0 0 0 0 0 0 0 0 0 0 0 0 0 0 0 0 0 0 0 0
0 0 0 0 0 0 0 0 0 0 0 0 0 0 0 0 0 0 0 0 0 0 0 0 0 0 0 0 0 0 0 0 0 0 0 0 0 0 0 0 0 0 0 0
0 0 0 0 0 0 0 0 0 0 0 0 0 0 0 0 0 0 0 0 0 0 0 0 0 0 0 0 0 0 0 0 0 0 0 0 0 0 0 0 0 0 0 0
0 0 0 0 0 0 0 0 0 0 0 0 0 0 0 0 0 0 0 0 0 0 0 0 0 0 0 0 0 0 0 0 0 0 0 0 0 0 0 0 0 0 0 0
0 0 0 0 0 0 0 0 0 0 0 0 0 0 0 0 0 0 0 0 0 0 0 0 0 0 0 0 0 0 0 0 0 0 0 0 0 0 0 0 0 0 0 0
0 0 0 0 0 0 0 0 0 0 0 0 0 0 0 0 0 0 0 0 0 0 0 0 0 0 0 0 0 0 0 0 0 0 0 0 0 0 0 0 0 0 0 0
0 0 0 0 0 0 0 0 0 0 0 0 0 0 0 0 0 0 0 0 0 0 0 0 0 0 0 0 0 0 0 0 0 0 0 0 0 0 0 0 0 0 0 0
0 0 0 0 0 0 0 0 0 0 0 0 0 0 0 0 0 0 0 0 0 0 0 0 0 0 0 0 0 0 0 0 0 0 0 0 0 0 0 0 0 0 0 0
0 0 0 0 0 0 0 0 0 0 0 0 0 0 0 0 0 0 0 0 0 0 0 0 0 0 0 0 0 0 0 0 0 0 0 0 0 0 0 0 0 0 0 0
0 0 0 0 0 0 0 0 0 0 0 0 0 0 0 0 0 0 0 0 0 0 0 0 0 0 0 0 0 0 0 0 0 0 0 0 0 0 0 0 0 0 0 0
0 0 0 0 0 0 0 0 0 0 0 0 0 0 0 0 0 0 0 0 0 0 0 0 0 0 0 0 0 0 0 0 0 0 0 0 0 0 0 0 0 0 0 0
0 0 0 0 0 0 0 0 0 0 0 0 0 0 0 0 0 0 0 0 0 0 0 0 0 0 0 0 0 0 0 0 0 0 0 0 0 0 0 0 0 0 0 0
0 0 0 0 0 0 0 0 0 0 0 0 0 0 0 0 0 0 0 0 0 0 0 0 0 0 0 0 0 0 0 0 0 0 0 0 0 0 0 0 0 0 0 0
0 0 0 0 0 0 0 0 0 0 0 0 0 0 0 0 0 0 0 0 0 0 0 0 0 0 0 0 0 0 0 0 0 0 0 0 0 0 0 0 0 0 0 0
0 0 0 0 0 0 0 0 0 0 0 0 0 0 0 0 0 0 0 0 0 0 0 0 0 0 0 0 0 0 0 0 0 0 0 0 0 0 0 0 0 0 0 0
0 0 0 0 0 0 0 0 0 0 0 0 0 0 0 0 0 0 0 0 0 0 0 0 0 0 0 0 0 0 0 0 0 0 0 0 0 0 0 0 0 0 0 0
0 0 0 0 0 0 0 0 0 0 0 0 0 0 0 0 0 0 0 0 0 0 0 0 0 0 0 0 0 0 0 0 0 0 0 0 0 0 0 0 0 0 0 0
0 0 0 0 0 0 0 0 0 0 0 0 0 0 0 0 0 0 0 0 0 0 0 0 0 0 0 0 0 0 0 0 0 0 0 0 0 0 0 0 0 0 0 0
0 0 0 0 0 0 0 0 0 0 0 0 0 0 0 0 0 0 0 0 0 0 0 0 0 0 0 0 0 0 0 0 0 0 0 0 0 0 0 0 0 0 0 0
0 0 0 0 0 0 0 0 0 0 0 0 0 0 0 0 0 0 0 0 0 0 0 0 0 0 0 0 0 0 0 0 0 0 0 0 0 0 0 0 0 0 0 0
0 0 0 0 0 0 0 0 0 0 0 0 0 0 0 0 0 0 0 0 0 0 0 0 0 0 0 0 0 0 0 0 0 0 0 0 0 0 0 0 0 0 0 0
0 0 0 0 0 0 0 0 0 0 0 0 0 0 0 0 0 0 0 0 0 0 0 0 0 0 0 0 0 0 0 0 0 0 0 0 0 0 0 0 0 0 0 0
0 0 0 0 0 0 0 0 0 0 0 0 0 0 0 0 0 0 0 0 0 0 0 0 0 0 0 0 0 0 0 0 0 0 0 0 0 0 0 0 0 0 0 0
0 0 0 0 0 0 0 0 0 0 0 0 0 0 0 0 0 0 0 0 0 0 0 0 0 0 0 0 0 0 0 0 0 0 0 0 0 0 0 0 0 0 0 0
0 0 0 0 0 0 0 0 0 0 0 0 0 0 0 0 0 0 0 0 0 0 0 0 0 0 0 0 0 0 0 0 0 0 0 0 0 0 0 0 0 0 0 0
0 0 0 0 0 0 0 0 0 0 0 0 0 0 0 0 0 0 0 0 0 0 0 0 0 0 0 0 0 0 0 0 0 0 0 0 0 0 0 0 0 0 0 0
0 0 0 0 0 0 0 0 0 0 0 0 0 0 0 0 0 0 0 0 0 0 0 0 0 0 0 0 0 0 0 0 0 0 0 0 0 0 0 0 0 0 0 0
Height
5583 5585 5587 5588 5591 5592 5592 5593 5594 5597 5598 5601 5598 5596 5595 5593 5592 5591 5590 5587 5585 5581 5578 5573 5569 5564 5559 5553 5547 5541 5536 5530 5525 5519 5513 5506 5500 5494 5489 5484 5479 5474 5471 5468
5571 5573 5574 5575 5579 5580 5581 5582 5583 5584 5587 5588 5585 5584 5583 5582 5581 5580 5578 5576 5573 5569 5565 5561 5556 5552 5546 5540 5535 5529 5524 5518 5513 5507 5501 5494 5488 5483 5477 5473 5468 5463 5459 5456
5559 5562 5561 5564 5570 5570 5570 5571 5572 5572 5576 5575 5574 5573 5572 5571 5570 5568 5566 5564 5561 5557 5553 5549 5544 5539 5534 5528 5523 5517 5512 5507 5501 5495 5489 5483 5476 5471 5466 5461 5457 5453 5449 5445
5547 5549 5550 5558 5559 5559 5559 5560 5560 5561 5562 5562 5562 5561 5560 5560 5558 5557 5555 5552 5549 5545 5542 5537 5532 5527 5522 5517 5511 5506 5501 5495 5489 5484 5478 5472 5466 5460 5455 5450 5446 5442 5439 5435
5536 5536 5539 5546 5548 5547 5547 5548 5549 5549 5550 5550 5549 5549 5549 5548 5546 5545 5543 5540 5537 5533 5529 5525 5520 5515 5510 5505 5500 5495 5489 5484 5478 5472 5467 5462 5456 5450 5445 5441 5436 5432 5428 5426
5525 5526 5529 5536 5536 5535 5535 5537 5539 5538 5538 5538 5537 5538 5539 5536 5534 5532 5530 5528 5524 5521 5517 5513 5508 5504 5499 5494 5489 5483 5478 5473 5467 5462 5457 5452 5446 5441 5436 5431 5427 5424 5420 5417
5515 5515 5519 5524 5524 5523 5525 5527 5526 5526 5526 5526 5526 5526 5526 5524 5522 5520 5518 5515 5512 5509 5506 5501 5497 5493 5488 5483 5478 5472 5468 5463 5457 5452 5447 5443 5438 5433 5428 5423 5419 5416 5412 5410
5504 5505 5511 5512 5512 5512 5512 5513 5514 5514 5515 5515 5515 5514 5513 5512 5510 5508 5506 5504 5501 5498 5494 5490 5485 5481 5477 5472 5467 5462 5457 5453 5448 5443 5439 5434 5430 5425 5421 5416 5413 5409 5406 5404
5495 5498 5499 5500 5500 5501 5501 5502 5502 5503 5503 5503 5503 5502 5501 5500 5499 5497 5494 5492 5489 5486 5483 5479 5474 5470 5466 5461 5456 5452 5448 5444 5439 5435 5431 5426 5422 5418 5414 5410 5406 5403 5401 5399
5484 5487 5488 5489 5489 5490 5490 5491 5491 5492 5492 5492 5491 5491 5490 5488 5487 5485 5483 5481 5478 5475 5472 5468 5463 5459 5455 5451 5446 5442 5438 5435 5431 5427 5423 5419 5415 5411 5408 5404 5401 5398 5396 5395
5474 5477 5477 5478 5479 5479 5480 5480 5480 5480 5480 5480 5480 5479 5478 5477 5476 5474 5472 5469 5466 5463 5460 5457 5453 5449 5445 5441 5437 5433 5430 5426 5423 5419 5416 5412 5409 5405 5402 5399 5396 5394 5392 5391
5465 5466 5467 5469 5469 5469 5469 5470 5469 5469 5469 5469 5468 5467 5467 5465 5464 5462 5461 5458 5455 5452 5449 5446 5443 5439 5435 5432 5428 5425 5422 5419 5416 5412 5410 5407 5404 5401 5397 5394 5392 5389 5388 5387
5454 5455 5457 5458 5459 5459 5459 5459 5459 5458 5458 5458 5457 5456 5455 5454 5452 5451 5449 5447 5444 5442 5439 5436 5433 5430 5426 5423 5420 5417 5414 5412 5409 5406 5404 5401 5399 5396 5394 5391 5388 5386 5385 5384
5443 5445 5447 5448 5449 5449 5449 5449 5449 5448 5447 5446 5446 5445 5444 5443 5441 5440 5438 5436 5434 5432 5429 5427 5424 5421 5418 5416 5413 5411 5408 5405 5403 5401 5399 5397 5394 5392 5390 5387 5385 5383 5381 5381
5434 5435 5437 5438 5439 5439 5439 5439 5439 5438 5437 5436 5435 5434 5433 5432 5431 5429 5428 5426 5424 5423 5421 5418 5416 5413 5411 5409 5407 5404 5402 5400 5398 5396 5394 5392 5390 5388 5386 5384 5382 5380 5379 5379
5425 5426 5427 5428 5428 5429 5429 5429 5429 5428 5427 5426 5425 5424 5424 5423 5421 5420 5418 5417 5416 5414 5412 5410 5408 5406 5404 5402 5400 5399 5397 5395 5393 5392 5390 5388 5386 5384 5383 5381 5379 5378 5378 5378
5416 5417 5418 5418 5419 5419 5419 5419 5419 5418 5417 5417 5416 5415 5415 5414 5412 5411 5410 5408 5407 5405 5404 5402 5400 5399 5397 5396 5394 5393 5391 5390 5388 5387 5386 5384 5382 5381 5379 5378 5377 5377 5377 5377
5409 5409 5409 5410 5410 5410 5410 5409 5409 5409 5408 5407 5407 5407 5406 5405 5404 5403 5401 5400 5399 5397 5396 5394 5393 5392 5391 5389 5388 5387 5386 5385 5384 5382 5381 5380 5378 5377 5376 5375 5375 5375 5376 5376
5400 5401 5401 5401 5401 5401 5401 5401 5400 5400 5399 5399 5398 5398 5397 5396 5395 5395 5393 5392 5391 5390 5389 5388 5387 5386 5385 5384 5383 5382 5381 5380 5380 5378 5377 5376 5375 5374 5373 5373 5374 5375 5376 5377
5393 5393 5393 5393 5393 5393 5393 5392 5392 5391 5391 5390 5390 5389 5389 5388 5388 5387 5386 5385 5384 5383 5382 5381 5381 5380 5379 5378 5377 5377 5376 5376 5375 5375 5374 5373 5372 5372 5372 5372 5373 5374 5376 5378
5386 5386 5386 5386 5386 5385 5385 5384 5384 5383 5383 5382 5382 5382 5381 5381 5380 5380 5379 5378 5377 5376 5376 5375 5375 5374 5374 5373 5372 5372 5372 5372 5372 5371 5371 5370 5370 5370 5370 5371 5372 5374 5376 5378
5380 5380 5380 5379 5379 5378 5378 5377 5376 5376 5375 5374 5374 5374 5374 5373 5373 5373 5372 5371 5371 5370 5370 5369 5369 5368 5368 5368 5367 5367 5368 5368 5368 5367 5368 5367 5368 5368 5369 5371 5372 5374 5376 5378
5373 5373 5373 5373 5372 5372 5371 5370 5369 5368 5368 5367 5367 5366 5366 5366 5366 5366 5365 5365 5364 5364 5364 5363 5363 5363 5363 5362 5363 5363 5363 5364 5364 5364 5364 5365 5365 5366 5367 5369 5371 5373 5376 5378
5367 5367 5367 5366 5366 5365 5364 5363 5362 5362 5361 5360 5360 5360 5359 5359 5359 5358 5358 5358 5358 5358 5357 5357 5358 5358 5358 5358 5358 5359 5359 5360 5361 5361 5362 5362 5363 5364 5366 5368 5370 5373 5375 5378
5361 5361 5360 5360 5359 5359 5358 5357 5356 5355 5355 5354 5354 5353 5353 5352 5352 5352 5352 5351 5352 5352 5352 5352 5352 5353 5353 5353 5354 5355 5356 5357 5358 5358 5359 5360 5361 5363 5365 5367 5370 5372 5375 5377
5355 5355 5354 5354 5353 5353 5352 5351 5351 5350 5349 5349 5348 5348 5347 5347 5346 5346 5346 5346 5346 5346 5346 5347 5347 5348 5349 5349 5350 5351 5353 5354 5355 5356 5357 5359 5360 5362 5364 5366 5369 5372 5374 5377
5350 5349 5349 5348 5348 5347 5347 5346 5346 5345 5344 5344 5343 5342 5342 5341 5341 5341 5341 5341 5341 5341 5341 5342 5343 5344 5345 5346 5347 5348 5350 5351 5353 5354 5356 5357 5359 5361 5363 5366 5368 5371 5374 5377
Wind_Speed
42 42 42 43 42 43 44 44 45 43 42 40 41 42 42 43 44 43 44 44 45 45 46 47 48 49 50 50 50 50 49 48 48 48 49 48 48 47 47 46 46 46 45 45
42 42 43 44 43 43 43 43 44 43 41 39 41 42 42 43 44 44 44 45 46 46 46 47 48 49 49 49 49 49 48 48 47 48 49 48 47 47 47 45 45 43 42 41
43 42 43 44 41 41 42 42 42 42 41 40 41 41 42 43 43 44 44 45 46 46 47 47 48 48 49 49 49 49 48 47 47 48 48 47 45 45 45 44 43 41 40 39
44 44 45 41 39 40 41 41 41 41 41 42 42 42 43 43 43 44 45 45 46 46 46 47 48 48 48 48 48 48 47 47 46 47 46 44 43 42 42 41 40 40 39 37
43 44 44 41 40 40 41 41 40 41 41 42 43 44 44 44 44 44 45 45 46 46 47 48 48 48 47 47 47 47 47 46 45 45 44 42 41 40 39 38 38 37 36 35
40 41 41 39 40 41 43 42 40 40 40 40 41 42 41 42 43 44 44 45 45 46 47 48 48 47 47 46 46 45 44 44 44 42 41 40 38 37 35 34 34 33 33 32
39 39 39 36 38 40 42 42 41 41 41 41 41 42 42 42 43 44 45 45 46 46 47 47 47 47 46 45 44 43 42 41 40 39 38 37 36 34 33 32 31 30 29 27
38 39 37 36 37 39 41 42 42 41 41 41 41 42 42 43 43 43 44 44 44 45 46 46 46 45 45 44 43 41 39 38 37 37 36 35 34 32 31 30 28 26 25 23
37 36 35 36 37 38 39 40 40 40 40 41 41 42 43 43 43 43 43 43 43 43 44 44 44 44 43 42 41 39 38 36 35 34 34 33 31 30 29 26 24 22 21 19
36 36 36 36 36 37 38 39 40 40 40 40 40 40 40 40 40 41 42 42 42 42 43 43 42 42 41 39 37 36 35 34 33 32 30 30 28 27 26 24 21 19 18 17
35 34 35 35 36 37 38 38 38 38 38 39 39 39 39 39 39 40 40 41 41 42 41 41 40 39 37 35 34 33 32 30 30 28 26 25 24 23 22 19 18 16 15 14
33 33 35 35 35 35 37 37 37 38 38 38 39 39 39 39 39 39 40 40 41 41 39 39 38 36 34 32 31 30 29 28 26 25 23 21 20 20 20 18 17 15 14 12
35 35 36 35 35 35 35 35 36 37 37 38 38 38 38 38 38 39 40 40 39 38 36 35 34 32 30 29 28 28 27 25 23 22 21 20 18 17 16 16 16 14 13 12
36 36 36 35 34 34 34 34 35 36 36 36 37 37 37 37 37 37 37 36 35 34 33 32 31 30 29 27 26 25 24 22 20 19 18 17 17 16 16 15 13 12 10 9
34 35 34 34 33 33 32 33 34 34 34 34 34 34 34 33 33 33 33 33 32 31 31 31 31 29 27 25 24 23 21 20 19 18 17 16 16 15 14 13 11 10 9 8
31 32 32 32 32 32 32 32 32 32 31 31 31 31 31 31 30 30 30 30 30 30 30 29 28 26 25 23 22 20 19 18 17 16 16 15 15 14 13 12 11 9 8 7
27 28 29 29 29 30 30 30 30 29 29 29 28 28 29 29 29 29 29 29 29 28 27 26 25 23 22 21 20 17 16 15 15 15 14 13 13 13 12 11 9 8 8 8
26 26 27 27 28 28 28 28 29 29 29 28 28 27 28 29 29 28 28 28 27 26 24 23 23 21 20 19 17 16 15 14 13 13 13 12 12 11 10 9 8 8 8 8
24 24 25 26 26 27 27 27 27 28 28 27 27 27 27 27 26 26 26 25 24 23 22 21 20 19 18 18 17 15 14 13 12 11 11 11 10 9 8 8 8 8 9 10
22 22 23 23 23 24 25 25 26 26 26 26 26 25 25 24 24 24 23 23 21 20 20 19 19 18 17 16 15 13 13 12 11 10 10 9 8 7 6 7 8 9 10 11
21 21 21 21 21 22 23 24 24 24 24 24 24 24 24 23 23 23 22 21 20 19 19 18 18 17 16 15 13 12 11 10 9 9 8 7 6 6 6 8 9 10 11 12
19 20 20 20 21 21 22 22 23 23 23 23 23 22 22 21 22 21 21 20 20 19 18 17 16 15 14 14 13 12 12 11 9 9 8 7 6 6 7 8 9 11 12 13
18 18 18 18 19 20 21 21 21 21 20 20 20 20 20 20 20 20 20 19 18 17 16 16 15 14 13 12 12 11 11 10 9 8 8 7 7 7 8 9 11 12 13 14
17 17 18 18 19 19 20 20 20 19 18 18 18 19 19 19 19 18 18 17 17 16 15 14 14 13 12 11 11 11 10 10 9 8 7 7 7 9 10 11 12 13 13 14
17 17 17 17 18 18 18 18 18 17 17 17 17 17 16 16 16 16 15 15 15 14 14 13 13 12 11 10 10 10 10 9 9 8 7 7 8 9 11 12 13 13 14 15
16 16 16 16 16 16 16 15 15 14 14 14 14 14 13 13 13 13 13 13 13 13 13 12 11 10 10 9 9 10 10 9 9 8 7 8 9 10 11 13 14 14 15 16
15 15 15 15 15 15 15 14 14 13 13 13 13 13 12 12 12 12 12 12 12 11 11 10 10 10 9 9 9 10 10 10 9 9 8 9 10 11 12 13 14 15 16 17
Wind_Direction
252 254 256 257 257 259 262 264 267 268 269 270 272 273 274 276 278 281 283 286 288 290 292 294 296 296 297 297 297 298 299 299 299 299 300 300 299 298 297 294 292 290 288 286
253 254 256 257 258 261 262 263 266 267 268 269 270 272 273 275 278 281 284 286 288 290 292 293 295 296 296 296 297 298 300 300 299 299 300 300 299 298 297 295 294 292 290 287
252 254 256 257 259 261 261 262 264 266 267 268 269 271 272 275 278 281 284 286 288 290 291 292 294 296 296 296 297 298 299 299 299 300 301 301 299 299 297 296 294 292 290 288
254 254 255 260 259 259 260 262 264 266 267 268 269 270 272 275 278 281 283 285 287 289 290 292 294 295 296 296 297 297 298 299 299 300 300 300 299 299 298 297 295 293 290 287
255 257 259 259 260 260 262 262 264 266 267 268 269 270 273 276 278 281 283 285 287 289 290 292 294 295 296 297 297 297 298 298 299 300 299 300 299 298 298 297 296 294 292 288
254 257 259 260 260 261 262 263 263 265 266 267 269 271 273 275 278 280 283 285 288 290 291 293 295 295 296 297 297 297 297 298 299 299 298 299 299 299 298 298 297 295 293 291
254 258 259 261 261 262 263 264 263 265 267 268 270 272 274 277 279 281 283 286 288 289 291 293 294 295 295 297 297 296 297 299 299 298 297 298 298 299 299 299 298 296 293 290
255 258 261 261 262 263 264 264 266 268 269 271 272 274 276 278 280 282 284 286 288 290 292 293 293 294 294 296 297 296 297 298 298 297 297 298 298 300 300 299 297 294 291 287
254 257 260 260 262 263 265 266 268 269 271 273 274 276 277 279 281 282 284 287 289 291 292 293 293 294 294 294 295 295 295 296 296 297 296 296 297 299 300 300 296 292 286 283
255 257 259 259 261 263 264 267 269 271 272 274 275 276 278 279 281 283 285 287 289 291 292 292 293 294 294 294 293 294 295 296 296 297 296 295 295 297 300 299 295 290 285 283
255 257 258 259 262 264 266 268 271 273 275 276 276 277 278 279 281 283 285 287 290 292 293 294 294 293 293 292 292 293 295 296 296 297 297 296 294 295 296 296 294 289 287 281
254 255 258 260 263 266 268 270 271 273 274 275 276 277 278 279 281 283 285 288 290 291 292 293 294 293 292 292 291 292 294 294 293 293 293 295 295 294 294 292 291 290 285 277
256 257 260 263 265 267 269 269 271 273 274 275 276 276 278 280 282 283 285 287 289 290 291 292 293 293 292 293 292 291 292 291 290 290 291 293 291 291 290 290 291 288 281 273
258 261 263 265 267 267 268 270 273 274 275 276 277 278 279 280 281 283 285 286 288 288 290 291 291 291 291 293 292 292 291 289 289 289 289 291 290 291 291 289 286 284 274 261
260 262 263 265 266 268 270 272 274 276 276 277 278 278 279 281 282 284 285 286 287 288 290 291 290 288 288 290 291 291 288 287 286 284 285 287 289 290 291 287 283 272 258 250
261 262 263 265 266 269 271 274 275 276 278 279 279 279 280 282 284 286 286 286 286 288 289 289 287 285 286 287 288 288 285 286 285 284 285 285 285 284 285 280 272 257 247 242
261 262 263 265 266 268 270 273 276 277 279 280 280 280 281 283 285 285 285 285 286 287 287 284 282 282 284 285 286 284 283 284 283 283 285 286 285 282 277 268 252 238 234 227
262 263 264 265 266 268 271 274 276 278 280 280 279 280 282 284 284 284 284 285 286 286 284 280 279 280 282 283 282 280 279 279 280 284 286 285 284 279 269 254 239 230 218 204
263 264 266 268 269 271 273 275 276 277 278 278 278 280 281 282 283 284 284 283 284 284 281 277 277 277 279 281 278 275 274 275 276 279 284 285 282 274 258 237 219 205 191 187
265 267 268 270 272 274 276 277 277 278 278 277 277 278 279 280 282 282 283 283 283 283 280 276 274 274 275 275 273 270 268 269 269 272 279 282 279 267 241 209 195 189 179 177
268 268 270 273 276 278 279 279 280 281 280 278 277 277 277 277 278 279 280 281 282 282 278 274 272 271 270 268 267 263 263 265 266 265 270 271 262 243 217 197 189 185 181 179
273 273 275 277 279 280 280 281 282 282 279 277 276 275 274 275 276 277 278 279 279 278 275 272 269 267 266 264 261 258 257 258 258 259 261 260 248 229 209 195 187 181 181 180
274 274 275 277 278 278 279 281 282 282 279 275 272 273 273 273 273 276 277 276 275 274 272 270 268 265 264 261 255 251 249 248 247 249 247 244 235 216 201 192 186 181 181 180
275 275 276 277 278 279 280 282 283 281 279 276 274 273 273 273 274 274 273 272 271 271 270 268 266 262 259 254 247 242 240 238 237 237 233 225 216 203 196 192 188 186 183 180
275 276 278 278 277 278 279 281 281 280 278 276 275 274 274 275 275 272 270 270 270 269 268 267 263 256 251 246 240 236 232 227 225 228 223 213 202 195 193 191 188 186 183 180
277 277 277 277 278 280 281 282 281 280 278 276 276 277 277 276 275 271 268 268 269 268 265 260 254 246 238 235 231 226 221 217 215 214 209 200 193 191 188 186 185 185 182 179
277 277 277 278 279 279 277 278 280 281 280 279 279 278 278 277 274 271 269 270 270 266 259 249 242 235 231 229 224 216 213 211 211 209 204 197 193 190 185 183 182 182 179 175